Time,TemperatureF,DewpointF,PressureIn,WindDirection,WindDirectionDegrees,WindSpeedMPH,WindSpeedGustMPH,Humidity,HourlyPrecipIn,Conditions,Clouds,dailyrainin,SoftwareType,DateUTC
2013-01-30 00:17:00,42.4,41.0,30.01,East,88,0.0,0.0,96,0.00,,,0.00,weatherlink.com 1.10,2013-01-30 05:17:00,
2013-01-30 00:32:00,42.5,42.0,30.01,East,88,0.0,1.0,96,0.00,,,0.00,weatherlink.com 1.10,2013-01-30 05:32:00,
2013-01-30 00:47:00,42.5,42.0,30.00,East,88,0.0,0.0,96,0.00,,,0.00,weatherlink.com 1.10,2013-01-30 05:47:00,
2013-01-30 01:02:00,42.7,42.0,29.99,East,88,0.0,1.0,96,0.00,,,0.00,weatherlink.com 1.10,2013-01-30 06:02:00,
2013-01-30 01:17:00,42.7,42.0,29.98,East,88,0.0,0.0,96,0.00,,,0.00,weatherlink.com 1.10,2013-01-30 06:17:00,
2013-01-30 01:33:00,42.9,42.0,29.96,East,88,0.0,1.0,97,0.00,,,0.00,weatherlink.com 1.10,2013-01-30 06:33:00,
2013-01-30 01:47:00,43.1,42.0,29.96,East,88,0.0,1.0,97,0.00,,,0.00,weatherlink.com 1.10,2013-01-30 06:47:00,
2013-01-30 02:03:00,43.2,42.0,29.96,East,88,0.0,0.0,97,0.00,,,0.00,weatherlink.com 1.10,2013-01-30 07:03:00,
2013-01-30 02:18:00,43.3,43.0,29.95,East,88,0.0,0.0,97,0.00,,,0.00,weatherlink.com 1.10,2013-01-30 07:18:00,
2013-01-30 02:33:00,43.5,43.0,29.95,East,88,0.0,2.0,97,0.00,,,0.00,weatherlink.com 1.10,2013-01-30 07:33:00,
2013-01-30 02:48:00,43.6,43.0,29.95,East,88,0.0,1.0,97,0.00,,,0.00,weatherlink.com 1.10,2013-01-30 07:48:00,
2013-01-30 03:03:00,43.4,43.0,29.93,East,88,0.0,0.0,97,0.00,,,0.00,weatherlink.com 1.10,2013-01-30 08:03:00,
2013-01-30 03:18:00,43.1,42.0,29.93,East,88,0.0,1.0,97,0.00,,,0.00,weatherlink.com 1.10,2013-01-30 08:18:00,
2013-01-30 03:33:00,42.8,42.0,29.91,East,88,0.0,0.0,97,0.00,,,0.00,weatherlink.com 1.10,2013-01-30 08:33:00,
2013-01-30 03:48:00,42.6,42.0,29.90,East,88,0.0,0.0,97,0.00,,,0.00,weatherlink.com 1.10,2013-01-30 08:48:00,
2013-01-30 04:03:00,42.4,42.0,29.89,East,88,0.0,0.0,97,0.00,,,0.00,weatherlink.com 1.10,2013-01-30 09:03:00,
2013-01-30 04:18:00,42.3,42.0,29.89,East,88,0.0,1.0,97,0.00,,,0.00,weatherlink.com 1.10,2013-01-30 09:18:00,
2013-01-30 04:33:00,42.2,41.0,29.89,East,88,0.0,2.0,97,0.00,,,0.00,weatherlink.com 1.10,2013-01-30 09:33:00,
2013-01-30 04:48:00,42.1,41.0,29.88,East,88,0.0,0.0,97,0.00,,,0.00,weatherlink.com 1.10,2013-01-30 09:48:00,
2013-01-30 05:03:00,42.0,41.0,29.88,East,88,0.0,1.0,97,0.00,,,0.00,weatherlink.com 1.10,2013-01-30 10:03:00,
2013-01-30 05:18:00,41.9,41.0,29.87,East,88,0.0,0.0,97,0.00,,,0.00,weatherlink.com 1.10,2013-01-30 10:18:00,
2013-01-30 05:33:00,41.8,41.0,29.87,East,88,0.0,1.0,97,0.00,,,0.00,weatherlink.com 1.10,2013-01-30 10:33:00,
2013-01-30 05:48:00,41.7,41.0,29.87,East,88,0.0,0.0,97,0.00,,,0.00,weatherlink.com 1.10,2013-01-30 10:48:00,
2013-01-30 06:03:00,41.6,41.0,29.87,East,88,0.0,0.0,97,0.00,,,0.00,weatherlink.com 1.10,2013-01-30 11:03:00,
2013-01-30 06:18:00,41.6,41.0,29.87,East,88,0.0,0.0,97,0.00,,,0.00,weatherlink.com 1.10,2013-01-30 11:18:00,
2013-01-30 06:33:00,41.5,41.0,29.85,East,88,0.0,0.0,97,0.00,,,0.00,weatherlink.com 1.10,2013-01-30 11:33:00,
2013-01-30 06:48:00,41.5,41.0,29.85,East,88,0.0,0.0,97,0.00,,,0.00,weatherlink.com 1.10,2013-01-30 11:48:00,
2013-01-30 07:03:00,41.4,41.0,29.84,East,88,0.0,0.0,97,0.00,,,0.00,weatherlink.com 1.10,2013-01-30 12:03:00,
2013-01-30 07:18:00,41.4,41.0,29.83,East,88,0.0,0.0,97,0.00,,,0.00,weatherlink.com 1.10,2013-01-30 12:18:00,
2013-01-30 07:33:00,41.3,41.0,29.83,East,88,0.0,0.0,97,0.00,,,0.00,weatherlink.com 1.10,2013-01-30 12:33:00,
2013-01-30 07:48:00,41.4,41.0,29.83,East,88,0.0,0.0,97,0.00,,,0.00,weatherlink.com 1.10,2013-01-30 12:48:00,
2013-01-30 08:03:00,41.7,41.0,29.82,East,88,0.0,0.0,98,0.00,,,0.00,weatherlink.com 1.10,2013-01-30 13:03:00,
2013-01-30 08:18:00,42.0,42.0,29.81,East,88,0.0,1.0,98,0.00,,,0.00,weatherlink.com 1.10,2013-01-30 13:18:00,
2013-01-30 08:33:00,42.6,42.0,29.80,NNE,24,0.0,2.0,98,0.00,,,0.00,weatherlink.com 1.10,2013-01-30 13:33:00,
2013-01-30 08:48:00,42.9,42.0,29.80,NNE,24,0.0,2.0,98,0.00,,,0.00,weatherlink.com 1.10,2013-01-30 13:48:00,
2013-01-30 09:03:00,43.6,43.0,29.79,NNE,13,0.0,2.0,98,0.00,,,0.00,weatherlink.com 1.10,2013-01-30 14:03:00,
2013-01-30 09:18:00,44.0,44.0,29.79,NNE,13,0.0,2.0,98,0.00,,,0.00,weatherlink.com 1.10,2013-01-30 14:18:00,
2013-01-30 09:33:00,44.5,44.0,29.78,NNE,13,0.0,1.0,98,0.00,,,0.00,weatherlink.com 1.10,2013-01-30 14:33:00,
2013-01-30 09:48:00,44.8,44.0,29.78,NNE,13,1.0,2.0,98,0.00,,,0.00,weatherlink.com 1.10,2013-01-30 14:48:00,
2013-01-30 10:03:00,45.4,45.0,29.78,NNE,30,0.0,2.0,98,0.00,,,0.00,weatherlink.com 1.10,2013-01-30 15:03:00,
2013-01-30 10:18:00,46.6,46.0,29.76,NNE,30,0.0,2.0,98,0.00,,,0.00,weatherlink.com 1.10,2013-01-30 15:18:00,
2013-01-30 10:34:00,48.0,48.0,29.76,ENE,59,0.0,2.0,98,0.00,,,0.00,weatherlink.com 1.10,2013-01-30 15:34:00,
2013-01-30 10:49:00,48.7,48.0,29.74,ENE,60,1.0,3.0,98,0.00,,,0.00,weatherlink.com 1.10,2013-01-30 15:49:00,
2013-01-30 11:04:00,49.5,49.0,29.74,ENE,60,0.0,2.0,98,0.00,,,0.00,weatherlink.com 1.10,2013-01-30 16:04:00,
2013-01-30 11:19:00,49.6,49.0,29.73,ENE,60,0.0,1.0,99,0.00,,,0.00,weatherlink.com 1.10,2013-01-30 16:19:00,
2013-01-30 11:34:00,49.8,49.0,29.71,ENE,60,0.0,2.0,98,0.00,,,0.00,weatherlink.com 1.10,2013-01-30 16:34:00,
2013-01-30 11:49:00,50.5,50.0,29.69,ENE,61,1.0,2.0,98,0.00,,,0.00,weatherlink.com 1.10,2013-01-30 16:49:00,
2013-01-30 12:04:00,51.4,51.0,29.68,ENE,61,0.0,1.0,97,0.00,,,0.00,weatherlink.com 1.10,2013-01-30 17:04:00,
2013-01-30 12:19:00,52.5,51.0,29.67,ENE,61,0.0,2.0,96,0.00,,,0.00,weatherlink.com 1.10,2013-01-30 17:19:00,
2013-01-30 12:33:00,55.7,55.0,29.66,West,263,1.0,5.0,98,0.00,,,0.00,weatherlink.com 1.10,2013-01-30 17:33:00,
2013-01-30 12:49:00,60.2,59.0,29.64,SW,228,0.0,7.0,95,0.00,,,0.00,weatherlink.com 1.10,2013-01-30 17:49:00,
2013-01-30 13:04:00,62.0,59.0,29.63,SSE,168,4.0,7.0,89,0.00,,,0.00,weatherlink.com 1.10,2013-01-30 18:04:00,
2013-01-30 13:19:00,63.1,59.0,29.62,SSE,157,3.0,5.0,87,0.00,,,0.00,weatherlink.com 1.10,2013-01-30 18:19:00,
2013-01-30 13:34:00,63.6,59.0,29.60,SSW,211,3.0,10.0,86,0.00,,,0.00,weatherlink.com 1.10,2013-01-30 18:34:00,
2013-01-30 13:49:00,64.2,59.0,29.59,West,277,4.0,7.0,84,0.00,,,0.00,weatherlink.com 1.10,2013-01-30 18:49:00,
2013-01-30 14:04:00,64.7,60.0,29.59,WSW,248,5.0,7.0,84,0.00,,,0.00,weatherlink.com 1.10,2013-01-30 19:04:00,
2013-01-30 14:19:00,65.2,60.0,29.57,South,190,2.0,10.0,83,0.00,,,0.00,weatherlink.com 1.10,2013-01-30 19:19:00,
2013-01-30 14:34:00,65.5,60.0,29.57,WSW,242,3.0,8.0,83,0.00,,,0.00,weatherlink.com 1.10,2013-01-30 19:34:00,
2013-01-30 14:49:00,66.0,60.0,29.56,SW,214,3.0,7.0,82,0.00,,,0.00,weatherlink.com 1.10,2013-01-30 19:49:00,
2013-01-30 15:05:00,66.5,61.0,29.56,SW,232,4.0,10.0,81,0.00,,,0.00,weatherlink.com 1.10,2013-01-30 20:05:00,
2013-01-30 15:20:00,66.7,60.0,29.55,SW,232,3.0,11.0,80,0.00,,,0.00,weatherlink.com 1.10,2013-01-30 20:20:00,
2013-01-30 15:35:00,66.7,60.0,29.55,SSW,192,2.0,8.0,80,0.00,,,0.00,weatherlink.com 1.10,2013-01-30 20:35:00,
2013-01-30 15:50:00,67.1,60.0,29.54,SSW,199,2.0,12.0,79,0.00,,,0.00,weatherlink.com 1.10,2013-01-30 20:50:00,
2013-01-30 16:05:00,67.4,60.0,29.53,WNW,283,2.0,11.0,78,0.00,,,0.00,weatherlink.com 1.10,2013-01-30 21:05:00,
2013-01-30 16:20:00,67.4,60.0,29.52,SSE,161,2.0,13.0,77,0.00,,,0.00,weatherlink.com 1.10,2013-01-30 21:20:00,
2013-01-30 16:35:00,67.3,60.0,29.53,SSW,205,3.0,10.0,77,0.00,,,0.00,weatherlink.com 1.10,2013-01-30 21:35:00,
2013-01-30 16:50:00,67.3,60.0,29.53,West,259,4.0,10.0,77,0.00,,,0.00,weatherlink.com 1.10,2013-01-30 21:50:00,
2013-01-30 17:05:00,67.4,60.0,29.52,WSW,240,7.0,8.0,76,0.00,,,0.00,weatherlink.com 1.10,2013-01-30 22:05:00,
2013-01-30 17:20:00,67.3,60.0,29.52,South,171,3.0,10.0,76,0.00,,,0.00,weatherlink.com 1.10,2013-01-30 22:20:00,
2013-01-30 17:35:00,66.5,59.0,29.52,WSW,252,3.0,10.0,77,0.00,,,0.00,weatherlink.com 1.10,2013-01-30 22:35:00,
2013-01-30 17:50:00,65.7,58.0,29.53,SSW,195,4.0,7.0,77,0.00,,,0.00,weatherlink.com 1.10,2013-01-30 22:50:00,
2013-01-30 18:05:00,65.0,59.0,29.54,WSW,240,7.0,10.0,80,0.00,,,0.00,weatherlink.com 1.10,2013-01-30 23:05:00,
2013-01-30 18:20:00,63.5,58.0,29.54,SSW,199,2.0,8.0,83,0.00,,,0.00,weatherlink.com 1.10,2013-01-30 23:20:00,
2013-01-30 18:35:00,62.7,58.0,29.54,West,264,3.0,6.0,85,0.00,,,0.00,weatherlink.com 1.10,2013-01-30 23:35:00,
2013-01-30 18:50:00,61.9,58.0,29.54,West,274,0.0,3.0,87,0.01,,,0.01,weatherlink.com 1.10,2013-01-30 23:50:00,
2013-01-30 19:05:00,61.0,58.0,29.53,West,274,0.0,2.0,90,0.01,,,0.01,weatherlink.com 1.10,2013-01-31 00:05:00,
2013-01-30 19:20:00,60.2,58.0,29.52,West,274,0.0,1.0,91,0.01,,,0.01,weatherlink.com 1.10,2013-01-31 00:20:00,
2013-01-30 19:35:00,59.4,57.0,29.51,West,274,0.0,0.0,92,0.01,,,0.01,weatherlink.com 1.10,2013-01-31 00:35:00,
2013-01-30 19:50:00,58.8,57.0,29.50,West,274,0.0,0.0,93,0.00,,,0.01,weatherlink.com 1.10,2013-01-31 00:50:00,
2013-01-30 20:20:00,58.7,57.0,29.48,SSE,165,0.0,2.0,94,0.00,,,0.01,weatherlink.com 1.10,2013-01-31 01:20:00,
2013-01-30 20:35:00,58.8,57.0,29.46,SSE,165,1.0,3.0,93,0.00,,,0.01,weatherlink.com 1.10,2013-01-31 01:35:00,
2013-01-30 20:50:00,59.5,57.0,29.46,South,188,0.0,3.0,92,0.00,,,0.01,weatherlink.com 1.10,2013-01-31 01:50:00,
2013-01-30 21:05:00,60.3,57.0,29.44,SSW,193,1.0,6.0,90,0.00,,,0.01,weatherlink.com 1.10,2013-01-31 02:05:00,
2013-01-30 21:20:00,60.7,58.0,29.43,SSW,198,0.0,4.0,89,0.00,,,0.01,weatherlink.com 1.10,2013-01-31 02:20:00,
2013-01-30 21:35:00,60.7,58.0,29.42,South,182,1.0,3.0,89,0.00,,,0.01,weatherlink.com 1.10,2013-01-31 02:35:00,
2013-01-30 21:50:00,60.9,58.0,29.40,South,175,0.0,7.0,89,0.00,,,0.01,weatherlink.com 1.10,2013-01-31 02:50:00,
2013-01-30 22:05:00,61.2,58.0,29.38,SSE,167,2.0,11.0,89,0.00,,,0.01,weatherlink.com 1.10,2013-01-31 03:05:00,
2013-01-30 22:20:00,61.7,58.0,29.37,SSE,158,3.0,9.0,88,0.00,,,0.01,weatherlink.com 1.10,2013-01-31 03:20:00,
2013-01-30 22:35:00,61.9,58.0,29.37,SE,141,4.0,10.0,88,0.00,,,0.01,weatherlink.com 1.10,2013-01-31 03:35:00,
2013-01-30 22:50:00,62.2,58.0,29.35,South,175,1.0,14.0,87,0.00,,,0.01,weatherlink.com 1.10,2013-01-31 03:50:00,
2013-01-30 23:05:00,62.2,58.0,29.34,SSE,149,1.0,12.0,87,0.00,,,0.01,weatherlink.com 1.10,2013-01-31 04:05:00,
2013-01-30 23:20:00,61.8,58.0,29.33,SE,138,4.0,11.0,88,0.00,,,0.01,weatherlink.com 1.10,2013-01-31 04:20:00,
2013-01-30 23:35:00,61.6,58.0,29.32,South,187,2.0,11.0,89,0.00,,,0.01,weatherlink.com 1.10,2013-01-31 04:35:00,
2013-01-30 23:50:00,61.4,59.0,29.30,ESE,112,5.0,10.0,90,0.00,,,0.01,weatherlink.com 1.10,2013-01-31 04:50:00,